Regional Weather Roundup
Issued by NWS

Home | Current Version | Previous Version | Graphics & Text | Print | Product List | Glossary On
Versions: 1 2 3 4 5 6 7 8 9 10 11 12 13 14 15 16 17 18 19 20 21 22 23 24 25 26 27 28 29 30 31 32 33 34 35 36 37 38 39 40 41 42 43 44 45 46 47 48 49 50
000
ASUS45 KBOU 031707
RWRCO

WEATHER ROUNDUP FOR COLORADO
NATIONAL WEATHER SERVICE DENVER/BOULDER CO
1100 AM MDT THU SEP 03 2015

NOTE: "FAIR" INDICATES FEW OR NO CLOUDS BELOW 12000 FEET WITH NO
SIGNIFICANT WEATHER AND/OR OBSTRUCTIONS TO VISIBILITY.

COZ001>005-013-030-031-031800-
...NORTHWEST COLORADO...

CITY           SKY/WX    TMP DP  RH WIND       PRES   REMARKS
CRAIG          MOSUNNY   75  47  36 SW13      30.13F
HAYDEN         MOSUNNY   70  45  40 CALM      30.16
MEEKER         PTSUNNY   72  50  45 S10       30.15S
MOUNT WERNER   NOT AVBL
STEAMBOAT SPGS PTSUNNY   69  46  43 CALM      30.18S
WALDEN         PTSUNNY   66  43  42 E6        30.25F
$$

COZ006>008-011-031800-
...WEST CENTRAL VALLEYS...

CITY           SKY/WX    TMP DP  RH WIND       PRES   REMARKS
GRAND JUNCTION CLOUDY    70  53  54 SE23G33   30.11R
MONTROSE       LGT RAIN  62  56  80 SE7       30.23R
EAGLE          SUNNY     66  46  48 CALM      30.20F
RIFLE          CLOUDY    64  51  62 CALM      30.15R
DELTA          RAIN      68  56  65 E9        30.19S
NUCLA          CLOUDY    72  50  46 NE5       30.23S
$$

COZ017>023-064>068-031800-
...SOUTHWEST COLORADO...

CITY           SKY/WX    TMP DP  RH WIND       PRES   REMARKS
DURANGO        PTSUNNY   69  48  47 CALM      30.24S
CORTEZ         SUNNY     73  52  47 CALM      30.18F
PAGOSA SPRINGS CLOUDY    63  46  52 CALM      30.31F
TELLURIDE      CLOUDY    55  49  83 CALM      30.40S
WOLF CREEK PAS NOT AVBL
$$

COZ009-010-012-014-032>034-037-058>063-031800-
...CENTRAL COLORADO...

CITY           SKY/WX    TMP DP  RH WIND       PRES   REMARKS
ASPEN          HVY RAIN  54  49  83 SE12      30.31R
BUENA VISTA    CLOUDY    62  44  53 CALM      30.30S
COPPER MTN     TSTM      54  39  58 S6        30.54S
BERTHOUD PASS  CLOUDY    45  32  61 MISG      30.59S
COTTONWOOD PAS CLOUDY    55  41  58 N5        30.41S
GUNNISON       CLOUDY    54  48  82 S3        30.35F
KREMMLING        N/A    N/A N/A N/A MISG        N/A
LEADVILLE      LGT RAIN  51  45  79 S7        30.39S
MONARCH PASS   CLOUDY    45  39  81 W13       30.64S
SALIDA         CLOUDY    65  50  58 CALM      30.32F
SUNLIGHT       CLOUDY    50  46  87 SW3       30.49R THUNDER
WILKERSON PASS CLOUDY    50  41  71 W3        30.53S
$$

COZ069>075-031800-
...SAN LUIS VALLEY/SANGRE DE CRISTO MOUNTAINS...

CITY           SKY/WX    TMP DP  RH WIND       PRES   REMARKS
ALAMOSA        PTSUNNY   63  49  60 CALM      30.26F
LA VETA PASS   MOSUNNY   59  45  58 MISG      30.41S
SAGUACHE       CLOUDY    63  45  51 SW3       30.30F
$$

COZ035-036-038>040-031800-
...NORTHERN COLORADO FRONT RANGE...

CITY           SKY/WX    TMP DP  RH WIND       PRES   REMARKS
DENVER INTL AP CLOUDY    78  46  32 NE3       30.07R
DMNS CITY PARK   N/A     76  49  39 E5G13     30.06S
AURORA         CLOUDY    74  49  40 CALM      30.09R
FRONT RANGE AP CLOUDY    77  45  31 W5        30.08R
ERIE MUNI ARPT CLOUDY    78  43  28 CALM      30.03S
BOULDER MUN AP CLOUDY    77  45  31 CALM      30.03F
CENTENNIAL     CLOUDY    74  46  36 SW8       30.10R
BROOMFIELD     CLOUDY    77  43  29 VRB6      30.08R
FORT COLLINS   CLOUDY    75  46  35 S5        30.03F
LONGMONT       CLOUDY    79  48  33 CALM      30.04S
$$

COZ041-046-047-076>085-087-088-031800-
...PIKES PEAK/PALMER DIVIDE AND SOUTHERN FOOTHILLS...

CITY           SKY/WX    TMP DP  RH WIND       PRES   REMARKS
COLO. SPRINGS  PTSUNNY   81  42  25 N14       30.11R
A. F. ACADEMY  CLOUDY    76  42  28 NW13      30.13S
ELLICOTT       PTSUNNY  N/A N/A N/A N18G25    30.07S
FALCON         PTSUNNY   74  42  31 MISG      30.16S
FORT CARSON    PTSUNNY   82  45  26 N13       30.07S
LIMON          PTSUNNY   82  46  28 N10       30.03S
MONUMENT HILL  CLOUDY    70  43  37 N6        30.19S
TRINIDAD       PTSUNNY   81  44  27 VRB3      30.07F
$$

COZ042>045-048>051-090-091-031800-
...NORTHEAST COLORADO...

CITY           SKY/WX    TMP DP  RH WIND       PRES   REMARKS
GREELEY ARPT   CLOUDY    73  52  46 CALM      30.02S
AKRON          PTSUNNY   89  40  17 N10       29.97S
BURLINGTON     PTSUNNY   87  46  24 CALM      29.95R
WRAY           CLOUDY    95  43  16 E5        29.89S
STERLING       PTSUNNY   79  54  41 NE5       29.92F
HOLYOKE        MOSUNNY   95  52  23 NE5       29.90S
FORT MORGAN    PTSUNNY   84  43  24 N10G17    29.97F
$$

COZ086-089-092>099-031800-
...SOUTHEAST COLORADO...

CITY           SKY/WX    TMP DP  RH WIND       PRES   REMARKS
PUEBLO         PTSUNNY   89  44  20 NW9       29.97F
LA JUNTA       PTSUNNY   87  47  24 VRB5      29.93F
LAMAR          MOSUNNY   86  51  29 VRB5      29.89F
SPRINGFIELD      N/A     89  46  22 SW7       29.96S
$$



USA.gov is the U.S. government's official web portal to all federal, state and local government web resources and services.